Date String (YYYY-MM-DD hh:mm:ss) UTC,Instrument flags,Ambient pressure (hPa),Sample flow (lpm),Bypass flow (lpm),Sample temperature (°C),Ambient temperature (°C),ASC tube jacket temperature (°C),LED temperature (°C),Box temperature (°C),Sample RH (%),Span deviation,Mass concentration (μg/m³),Mass concentration (μg/m³),Mass concentration (μg/m³)
DateTimeUTC,F1_M11,P_M11,Q1_M11,Q2_M11,T1_M11,T2_M11,T3_M11,T4_M11,T5_M11,U1_M11,ZSPAN_M11,X0_M11,X2_M11,X1_M11
2022-02-13 08:00:00,,0831.8,4.99,0.00,22.5,21.7,00.0,31.5,24.3,09.1,0000.0,0005.75,0003.48,0003.11
2022-02-13 08:01:00,,0831.8,5.01,0.00,22.5,21.7,00.0,31.5,24.3,09.1,0000.0,0005.93,0003.52,0003.11
2022-02-13 08:02:00,,0831.9,5.00,0.00,22.5,21.7,00.0,31.5,24.3,09.1,0000.0,0006.07,0003.54,0003.12
2022-02-13 08:03:00,,0831.8,5.00,0.00,22.5,21.7,00.0,31.5,24.2,09.1,0000.0,0006.17,0003.51,0003.12
2022-02-13 08:04:00,,0831.7,5.00,0.00,22.5,21.6,00.0,31.5,24.2,09.0,0000.0,0006.11,0003.49,0003.10
2022-02-13 08:05:00,,0831.7,5.01,0.00,22.5,21.6,00.0,31.5,24.2,09.1,0000.0,0005.99,0003.47,0003.07
2022-02-13 08:06:00,,0831.7,4.99,0.00,22.5,21.6,00.0,31.4,24.2,09.2,0000.0,0006.51,0003.46,0003.03
2022-02-13 08:07:00,,0831.7,5.01,0.00,22.4,21.6,00.0,31.4,24.2,09.2,0000.0,0006.82,0003.48,0002.98
2022-02-13 08:08:00,,0831.7,4.99,0.00,22.4,21.6,00.0,31.4,24.2,09.2,0000.0,0006.88,0003.46,0002.93
2022-02-13 08:09:00,,0831.7,5.01,0.00,22.4,21.6,00.0,31.4,24.2,09.2,0000.0,0007.02,0003.43,0002.87
2022-02-13 08:10:00,,0831.7,4.99,0.00,22.4,21.8,00.0,31.4,24.2,09.2,0000.0,0006.82,0003.37,0002.78
2022-02-13 08:11:00,,0831.7,5.00,0.00,22.5,22.5,00.0,31.4,24.3,09.1,0000.0,0006.60,0003.31,0002.73
2022-02-13 08:12:00,,0831.7,5.00,0.00,22.6,23.2,00.0,31.5,24.6,09.1,0000.0,0006.39,0003.23,0002.65
2022-02-13 08:13:00,,0831.7,5.00,0.00,22.7,23.1,00.0,31.5,24.7,09.0,0000.0,0006.13,0003.17,0002.56
2022-02-13 08:14:00,,0831.6,5.01,0.00,22.7,22.9,00.0,31.5,24.7,09.0,0000.0,0006.36,0003.13,0002.45
2022-02-13 08:15:00,,0831.6,5.00,0.00,22.7,22.7,00.0,31.5,24.6,09.0,0000.0,0006.52,0003.08,0002.38
2022-02-13 08:16:00,,0831.7,5.00,0.00,22.7,22.5,00.0,31.5,24.6,09.0,0000.0,0006.47,0003.04,0002.32
2022-02-13 08:17:00,,0831.7,5.01,0.00,22.7,22.4,00.0,31.5,24.6,09.0,0000.0,0005.87,0002.94,0002.24
2022-02-13 08:18:00,,0831.7,4.99,0.00,22.7,22.3,00.0,31.5,24.5,09.0,0000.0,0005.28,0002.77,0002.18
2022-02-13 08:19:00,,0831.6,5.01,0.00,22.7,22.2,00.0,31.6,24.5,09.0,0000.0,0005.00,0002.64,0002.11
2022-02-13 08:20:00,,0831.7,4.99,0.00,22.7,22.1,00.0,31.6,24.5,09.0,0000.0,0004.55,0002.50,0002.06
2022-02-13 08:21:00,,0831.7,5.00,0.00,22.7,22.1,00.0,31.6,24.5,09.0,0000.0,0004.51,0002.47,0002.03
2022-02-13 08:22:00,,0831.6,5.02,0.00,22.7,22.0,00.0,31.6,24.5,09.0,0000.0,0004.48,0002.42,0001.98
2022-02-13 08:23:00,,0831.6,4.99,0.00,22.7,22.0,00.0,31.6,24.4,09.0,0000.0,0004.40,0002.39,0001.95
2022-02-13 08:24:00,,0831.6,5.01,0.00,22.7,21.9,00.0,31.6,24.4,09.0,0000.0,0004.29,0002.33,0001.89
2022-02-13 08:25:00,,0831.7,5.01,0.00,22.6,21.9,00.0,31.6,24.4,09.1,0000.0,0004.02,0002.30,0001.85
2022-02-13 08:26:00,,0831.7,4.98,0.00,22.6,21.8,00.0,31.6,24.4,09.1,0000.0,0003.69,0002.33,0001.84
2022-02-13 08:27:00,,0831.6,5.00,0.00,22.6,21.8,00.0,31.5,24.4,09.1,0000.0,0003.71,0002.31,0001.81
2022-02-13 08:28:00,,0831.6,5.00,0.00,22.6,21.8,00.0,31.5,24.3,09.1,0000.0,0003.74,0002.30,0001.80
2022-02-13 08:29:00,,0831.6,5.00,0.00,22.6,21.8,00.0,31.5,24.3,09.2,0000.0,0003.77,0002.32,0001.81
2022-02-13 08:30:00,,0831.6,4.99,0.00,22.6,21.7,00.0,31.5,24.3,09.2,0000.0,0004.42,0002.43,0001.88
2022-02-13 08:31:00,,0831.6,5.01,0.00,22.5,21.7,00.0,31.5,24.3,09.1,0000.0,0005.56,0002.63,0001.98
2022-02-13 08:32:00,,0831.6,5.00,0.00,22.5,21.7,00.0,31.5,24.3,09.2,0000.0,0005.70,0002.68,0002.05
2022-02-13 08:33:00,,0831.7,5.01,0.00,22.5,21.7,00.0,31.5,24.3,09.1,0000.0,0006.10,0002.81,0002.17
2022-02-13 08:34:00,,0831.6,4.98,0.00,22.5,21.6,00.0,31.5,24.2,09.0,0000.0,0006.60,0003.01,0002.30
2022-02-13 08:35:00,,0831.6,5.01,0.00,22.5,21.6,00.0,31.5,24.2,08.9,0000.0,0006.99,0003.17,0002.44
2022-02-13 08:36:00,,0831.7,4.99,0.00,22.5,21.6,00.0,31.5,24.2,08.9,0000.0,0007.21,0003.25,0002.58
2022-02-13 08:37:00,,0831.7,5.02,0.00,22.5,21.6,00.0,31.5,24.2,09.0,0000.0,0007.62,0003.32,0002.73
2022-02-13 08:38:00,,0831.7,4.99,0.00,22.4,21.6,00.0,31.4,24.2,08.9,0000.0,0007.79,0003.39,0002.88
2022-02-13 08:39:00,,0831.7,4.99,0.00,22.4,21.6,00.0,31.4,24.2,08.9,0000.0,0007.88,0003.47,0003.03
2022-02-13 08:40:00,,0831.7,5.02,0.00,22.4,21.5,00.0,31.4,24.1,08.9,0000.0,0008.03,0003.55,0003.13
2022-02-13 08:41:00,,0831.6,5.00,0.00,22.4,21.9,00.0,31.4,24.2,08.9,0000.0,0007.84,0003.59,0003.17
2022-02-13 08:42:00,,0831.7,5.00,0.00,22.5,22.6,00.0,31.5,24.4,08.9,0000.0,0007.90,0003.58,0003.18
2022-02-13 08:43:00,,0831.7,4.99,0.00,22.7,23.2,00.0,31.5,24.6,08.9,0000.0,0008.22,0003.62,0003.22
2022-02-13 08:44:00,,0831.6,5.01,0.00,22.7,23.2,00.0,31.5,24.7,09.0,0000.0,0008.13,0003.59,0003.19
2022-02-13 08:45:00,,0831.7,5.00,0.00,22.8,22.9,00.0,31.5,24.7,09.0,0000.0,0007.83,0003.47,0003.11
2022-02-13 08:46:00,,0831.7,5.02,0.00,22.8,22.7,00.0,31.6,24.7,09.0,0000.0,0007.70,0003.41,0003.04
2022-02-13 08:47:00,,0831.7,5.01,0.00,22.8,22.6,00.0,31.6,24.6,09.0,0000.0,0007.54,0003.32,0002.93
2022-02-13 08:48:00,,0831.6,5.00,0.00,22.7,22.4,00.0,31.6,24.6,08.9,0000.0,0006.80,0003.17,0002.70
2022-02-13 08:49:00,,0831.6,4.99,0.00,22.7,22.3,00.0,31.6,24.6,08.8,0000.0,0006.12,0002.93,0002.45
2022-02-13 08:50:00,,0831.6,5.00,0.00,22.7,22.2,00.0,31.6,24.6,08.8,0000.0,0005.73,0002.66,0002.20
2022-02-13 08:51:00,,0831.6,5.02,0.00,22.7,22.2,00.0,31.6,24.5,08.9,0000.0,0005.41,0002.40,0001.94
2022-02-13 08:52:00,,0831.6,5.00,0.00,22.7,22.1,00.0,31.6,24.5,09.1,0000.0,0004.93,0002.11,0001.69
2022-02-13 08:53:00,,0831.6,5.01,0.00,22.7,22.1,00.0,31.6,24.5,08.9,0000.0,0003.73,0001.83,0001.45
2022-02-13 08:54:00,,0831.6,4.98,0.00,22.7,22.0,00.0,31.6,24.5,09.1,0000.0,0002.63,0001.56,0001.21
2022-02-13 08:55:00,,0831.6,5.01,0.00,22.7,22.0,00.0,31.6,24.5,09.0,0000.0,0002.23,0001.42,0001.07
2022-02-13 08:56:00,,0831.6,4.99,0.00,22.7,21.9,00.0,31.6,24.5,09.0,0000.0,0002.24,0001.43,0001.08
2022-02-13 08:57:00,,0831.5,5.00,0.00,22.7,21.9,00.0,31.6,24.4,09.0,0000.0,0002.17,0001.38,0001.06
2022-02-13 08:58:00,,0831.5,5.00,0.00,22.6,21.9,00.0,31.6,24.4,09.0,0000.0,0002.19,0001.38,0001.06
2022-02-13 08:59:00,,0831.6,5.00,0.00,22.6,21.8,00.0,31.6,24.3,09.0,0000.0,0002.29,0001.46,0001.13
